Theta_e
302 302 302 302 302 301 301 302 302 302 302 302 302 302 302 303 303 303 303 303 303 303 303 303 303 303 303 303 303 304 304 304 305 305 306 308 308 308 310 311 312 310 309 308 308 309 309 309 311 317 319 320 319 319 318 317 318 318 318 318 317 317 317 318 318 318 318 319 319 319 320 319 319 318 320 320 319 334 341 343 345 344 345 347 349 349 348 349
302 302 301 301 301 301 301 301 301 302 302 302 302 302 302 302 302 303 302 303 303 303 303 303 303 303 303 303 303 303 304 304 305 305 307 309 309 310 311 311 311 310 308 308 308 309 310 310 312 318 320 320 318 318 317 317 318 317 318 318 316 317 317 318 318 318 318 318 318 319 319 319 319 318 319 320 319 335 342 342 347 348 347 347 350 351 350 349
302 302 301 301 301 301 301 301 301 301 301 301 301 302 302 302 302 302 302 302 302 302 303 302 303 303 303 303 303 304 304 304 305 306 308 308 308 310 311 311 311 310 309 308 309 311 313 313 316 319 320 319 318 317 316 317 318 317 317 318 316 316 316 317 318 318 318 318 318 318 318 318 319 318 320 319 318 334 343 340 343 347 349 349 350 351 350 349
302 301 301 301 301 301 301 300 301 301 301 301 301 301 301 301 302 302 302 302 302 302 302 302 302 302 303 303 303 303 303 307 309 310 312 311 310 311 309 310 311 310 309 308 310 314 316 317 318 320 319 318 316 315 315 316 317 317 316 316 316 316 317 318 319 318 318 318 318 317 318 317 318 319 320 319 318 331 341 338 339 344 348 350 350 350 349 349
301 301 301 301 301 300 300 300 300 300 300 300 300 301 301 301 301 301 302 301 301 301 301 301 301 302 303 302 303 302 304 315 319 317 318 315 313 312 310 311 312 311 308 309 314 317 318 319 319 319 319 317 315 314 314 316 317 317 316 316 316 316 316 318 319 318 318 318 318 317 318 317 318 319 319 320 317 324 336 338 337 341 346 348 348 349 348 348
301 301 301 301 301 301 300 300 300 300 300 300 300 300 301 301 301 301 301 301 301 301 301 301 301 301 302 302 302 301 306 317 321 319 319 317 315 312 312 312 312 311 308 310 317 319 319 320 319 319 319 316 315 315 315 316 317 317 316 315 316 317 316 318 318 318 318 317 317 317 317 317 318 318 318 319 316 323 336 339 337 340 345 347 348 348 349 349
301 301 301 300 300 300 300 300 299 299 300 300 300 300 301 301 301 301 301 301 301 300 301 300 301 301 301 302 301 302 307 312 313 315 316 317 316 313 313 312 312 310 308 313 318 319 319 320 319 319 318 317 316 316 316 316 317 316 316 316 317 317 317 318 318 318 318 318 317 317 317 317 317 318 318 318 317 329 339 337 337 341 345 347 348 348 349 350
300 300 300 300 300 300 300 299 299 299 299 300 300 300 300 301 301 301 301 301 300 300 300 300 301 300 301 301 301 307 311 311 312 315 315 315 314 314 314 313 312 309 308 315 319 318 320 320 319 319 318 317 317 316 317 317 316 316 316 316 317 317 317 318 318 318 318 318 317 317 316 316 317 317 318 317 317 331 340 339 339 341 344 346 347 348 349 350
300 300 300 300 300 299 299 299 299 299 299 299 300 300 300 300 300 300 301 300 300 300 300 300 301 300 301 300 304 312 314 315 318 318 317 314 311 312 314 313 312 309 308 315 319 319 320 320 319 319 319 318 317 317 317 316 315 316 316 316 316 316 317 317 318 318 317 318 317 317 316 316 318 317 317 317 317 331 340 341 341 340 343 347 348 349 349 349
300 299 299 300 299 299 299 299 299 299 299 299 300 300 300 300 300 300 300 300 300 300 300 300 300 301 300 301 308 315 315 318 322 319 318 314 312 311 310 312 313 310 309 315 320 320 321 321 319 319 319 318 317 316 316 315 315 316 316 316 316 316 317 317 317 318 317 318 317 316 317 316 317 316 317 317 320 334 341 340 340 337 338 343 347 348 348 348
299 299 299 299 299 299 299 299 299 299 299 299 300 300 300 300 300 300 300 300 300 300 300 300 300 300 300 303 309 315 314 318 321 319 318 315 313 311 308 310 313 310 309 315 320 320 320 320 319 318 317 317 316 316 316 315 316 316 317 317 317 317 317 317 317 317 317 318 318 318 317 317 317 316 317 316 321 335 339 338 337 333 333 336 341 346 347 346
299 299 299 299 299 299 298 299 299 299 299 299 300 299 299 299 299 300 300 300 300 300 300 300 301 300 300 301 306 312 311 316 319 318 317 313 311 310 309 310 311 309 309 315 319 318 319 319 318 316 316 315 315 315 315 315 316 316 316 316 316 317 317 317 317 317 317 318 318 318 316 316 316 315 317 316 321 334 337 336 336 333 333 333 336 343 345 345
299 299 299 299 299 298 298 299 298 299 299 299 299 299 299 299 299 300 300 300 300 300 300 300 300 299 301 303 306 309 311 312 315 317 317 313 310 310 312 312 310 309 312 317 318 317 317 316 316 315 315 314 314 314 314 315 316 316 316 315 315 315 315 316 317 317 317 317 318 316 315 317 317 315 317 316 320 333 336 335 336 333 333 333 336 341 343 344
298 299 299 298 298 298 298 298 298 299 298 299 299 299 299 299 299 299 299 300 299 300 300 300 301 299 302 306 306 309 311 311 311 315 317 313 312 313 314 314 310 312 316 317 316 316 316 315 315 314 314 314 314 314 313 314 316 316 315 315 316 314 314 315 316 317 316 316 317 316 314 317 318 315 317 317 319 332 336 336 336 333 333 335 338 341 340 341
299 299 298 298 298 298 298 298 298 299 298 298 298 298 299 299 299 299 300 300 299 300 300 300 300 301 306 308 305 310 313 312 312 314 317 314 314 315 316 315 313 314 316 315 316 316 315 314 314 314 314 314 313 314 313 314 316 315 315 315 315 313 313 316 316 316 316 316 317 316 315 316 316 315 317 316 319 331 336 337 337 335 334 334 337 339 338 339
298 298 298 298 298 298 298 298 298 298 298 298 298 299 299 299 299 299 300 299 300 301 300 304 305 303 310 312 308 312 314 312 311 313 316 314 315 316 317 317 314 315 315 316 317 316 315 315 314 314 314 313 313 313 313 314 316 315 315 316 315 313 313 314 316 317 316 316 316 316 316 316 317 316 317 316 321 332 336 336 337 337 336 335 335 336 336 338
298 298 298 298 298 298 298 297 298 298 297 298 298 298 298 299 300 299 299 299 300 301 301 309 312 307 311 314 312 314 313 312 311 312 315 315 316 317 317 317 315 315 316 317 317 316 316 315 315 315 314 314 314 313 314 314 316 317 315 315 315 314 314 314 315 316 316 316 316 316 316 317 318 317 317 318 324 333 335 335 336 337 337 336 336 335 336 337
298 298 298 298 298 297 297 297 297 297 297 298 298 299 299 299 299 299 300 300 302 305 305 308 312 314 315 313 313 315 313 312 311 312 314 314 316 317 316 316 316 316 317 317 317 316 315 314 315 315 315 315 314 314 315 314 316 317 316 315 315 314 315 314 315 316 316 317 317 317 317 317 318 317 319 320 323 332 334 334 334 336 336 335 335 336 336 336
298 297 298 298 298 297 296 297 297 297 297 298 299 299 299 301 306 309 305 304 307 311 313 311 312 318 318 312 313 314 313 313 310 311 313 314 316 317 316 316 316 316 317 317 317 316 315 314 314 314 315 315 315 314 314 315 315 316 316 316 315 315 315 316 316 317 316 317 317 318 318 317 319 319 320 319 320 330 334 335 334 335 335 333 335 335 334 336
298 297 298 298 298 297 296 297 297 297 297 298 299 298 303 311 316 318 312 307 309 310 312 313 311 312 312 311 313 314 314 313 311 312 313 314 316 316 316 315 315 316 317 317 317 316 314 315 315 314 314 315 316 316 315 316 316 316 316 316 316 316 316 317 317 317 317 317 318 319 319 318 320 322 320 318 318 327 332 335 334 334 334 333 334 334 333 336
297 296 297 297 297 297 296 297 296 297 297 298 299 298 307 314 313 314 313 310 311 309 310 312 311 311 312 313 314 314 315 313 312 311 312 314 314 315 315 315 315 316 317 316 317 316 315 316 316 314 314 315 318 321 321 319 318 318 317 316 317 316 316 318 317 317 319 321 319 320 320 318 321 321 319 318 318 325 332 335 333 334 333 332 333 333 332 335
296 297 297 297 297 296 296 297 297 297 297 298 299 298 305 312 309 309 310 309 310 311 311 313 313 314 313 313 314 315 316 315 313 311 312 313 313 313 314 315 316 316 316 317 317 317 316 316 315 314 315 316 317 320 322 321 320 320 318 317 318 318 317 319 320 317 319 322 321 320 320 320 324 323 321 320 317 322 331 335 333 333 333 332 331 331 331 333
296 297 297 297 297 296 296 297 296 297 298 298 299 299 304 310 309 307 308 310 310 310 311 312 314 316 315 313 313 315 316 316 314 312 311 313 312 313 314 315 315 316 316 316 318 318 316 315 315 314 316 317 318 319 321 322 321 321 319 318 318 319 317 318 321 318 317 322 322 321 322 324 327 324 322 320 316 318 329 335 334 333 333 331 330 330 330 332
296 296 297 297 296 296 297 296 298 302 303 300 300 303 306 308 308 307 309 311 311 310 310 310 312 315 315 313 312 315 316 315 315 314 312 312 313 312 313 314 315 316 317 316 317 317 316 315 315 315 315 316 318 319 321 321 322 322 321 319 320 320 318 317 319 320 323 325 326 324 322 327 327 322 322 320 317 318 322 330 333 333 332 331 331 331 330 332
296 296 297 296 296 297 296 297 303 308 307 303 305 308 308 307 308 309 311 313 313 312 310 310 310 313 315 312 312 314 314 314 315 314 312 313 313 312 312 314 315 315 316 316 316 316 316 316 316 315 315 315 315 317 319 319 321 324 325 322 321 321 319 318 317 319 322 322 325 323 319 326 329 320 320 320 318 319 317 320 326 330 333 331 332 332 331 333
296 296 296 296 296 296 296 303 310 309 308 307 309 310 307 308 309 308 312 317 317 314 310 311 310 311 313 312 311 313 313 313 314 313 314 314 313 313 312 314 315 315 316 316 316 316 316 317 317 316 315 315 314 315 316 319 322 323 324 323 322 321 319 318 316 316 318 319 323 322 318 324 327 321 321 320 318 319 319 319 319 324 331 332 331 332 333 334
296 296 296 296 296 296 297 307 312 309 308 310 309 308 307 309 309 309 316 320 319 315 310 310 311 311 313 313 312 312 313 313 313 313 314 314 314 314 313 314 315 315 315 316 316 317 317 318 318 318 317 315 314 314 316 320 322 322 322 321 319 319 318 318 316 315 318 321 323 322 318 317 318 321 324 320 318 318 318 320 318 317 324 331 331 331 332 333
295 296 296 296 296 296 296 303 307 307 309 309 308 308 307 309 309 311 319 324 322 314 310 311 312 312 311 313 311 311 313 313 312 312 313 315 315 314 313 313 315 315 315 316 317 319 319 319 319 319 318 316 316 317 319 320 320 321 321 319 318 317 317 317 316 317 319 320 319 319 317 314 316 325 325 317 319 323 322 324 324 320 322 328 332 333 335 334
296 296 296 296 296 297 298 299 301 305 307 308 308 308 307 308 310 314 320 324 321 312 312 313 312 312 311 312 312 312 313 312 313 312 312 315 316 315 314 314 314 315 315 316 317 319 319 319 318 318 318 318 318 319 319 319 319 320 320 319 318 316 318 318 318 318 318 318 318 319 317 314 319 327 325 320 324 328 328 328 328 326 326 329 331 333 336 336
296 296 296 296 296 298 299 299 300 304 305 307 308 307 307 309 313 318 319 321 318 313 313 312 312 313 312 312 312 313 313 312 313 312 311 314 316 315 315 315 314 315 315 316 316 316 316 317 318 318 318 318 319 320 319 318 318 318 318 317 317 317 319 321 321 318 316 320 320 319 318 315 316 323 326 327 329 330 330 330 329 329 328 331 332 332 334 334
296 296 296 296 296 298 299 300 304 307 306 308 308 306 308 313 317 320 320 318 315 315 313 312 313 313 313 313 313 313 312 312 312 311 310 313 316 315 315 316 315 315 317 317 316 316 315 316 318 318 317 318 319 319 318 318 317 316 317 316 317 319 318 318 320 317 316 322 321 315 316 315 314 322 330 331 331 331 331 330 329 329 329 330 332 332 333 333
296 296 296 296 296 296 298 303 308 309 309 309 307 306 311 316 316 317 319 316 314 315 314 313 314 314 314 314 313 312 312 312 312 311 309 311 315 315 315 316 316 316 317 317 317 317 315 316 317 318 318 317 318 318 317 316 316 315 317 318 317 317 317 317 318 318 319 323 321 315 314 314 318 327 331 332 332 331 331 328 327 328 328 330 332 332 332 333
295 295 295 296 296 295 297 305 309 310 309 308 306 308 314 317 318 316 315 315 315 313 314 315 314 314 315 314 314 313 312 312 313 313 310 310 314 315 313 314 316 317 318 319 318 316 314 315 315 316 319 317 317 318 316 316 317 316 317 319 319 317 317 318 318 318 319 319 318 317 315 316 325 332 333 333 332 330 330 329 327 327 328 330 333 334 334 333
295 295 296 296 296 296 296 302 309 309 307 307 309 313 317 318 320 315 311 313 314 312 313 315 314 314 314 314 314 313 312 313 314 314 312 310 312 315 314 313 314 315 317 318 318 316 316 318 317 316 317 318 318 318 317 317 317 318 317 319 320 318 316 318 318 317 319 322 323 320 317 322 332 338 335 332 330 329 331 332 331 331 330 331 332 333 333 332
295 295 297 296 296 297 296 300 307 308 306 309 312 315 317 318 318 316 314 312 311 312 313 314 314 314 314 314 314 314 314 314 314 314 314 311 312 314 315 313 313 314 315 317 318 316 316 318 318 316 317 317 318 318 318 317 316 318 317 315 318 320 318 317 318 318 320 328 328 322 324 329 334 336 333 330 330 331 332 332 332 331 330 330 330 330 330 329
296 298 301 300 297 298 296 298 306 307 308 312 314 315 316 316 315 316 315 311 310 311 312 314 314 312 313 313 313 314 315 315 315 314 313 312 312 312 313 313 312 313 314 318 319 316 316 320 319 315 316 317 318 318 317 316 318 319 316 314 318 321 319 316 320 321 319 324 324 322 332 334 330 332 332 330 332 331 330 331 330 329 328 328 329 329 329 329
296 300 305 304 301 299 296 299 304 306 309 313 316 316 315 313 314 315 313 311 310 310 310 313 314 312 313 313 313 313 314 315 315 315 314 314 314 313 312 313 313 312 313 316 318 318 319 322 322 316 316 316 317 318 316 316 317 316 316 317 317 317 317 315 317 319 319 322 320 320 331 334 332 334 333 330 334 332 330 330 329 328 328 327 328 328 328 328
297 301 306 307 305 303 298 299 303 305 310 314 315 316 314 312 314 314 311 311 309 309 311 313 312 311 312 313 314 313 313 315 315 314 315 314 315 315 312 312 313 312 312 313 316 318 318 318 321 318 317 318 317 316 316 316 315 315 316 317 318 320 319 314 314 319 321 323 319 318 327 332 331 333 331 329 334 332 329 329 328 328 328 326 326 327 326 326
300 305 309 310 311 310 302 298 303 307 311 314 314 315 314 312 314 313 311 310 309 309 310 310 310 311 311 312 314 314 313 316 316 315 315 314 318 320 316 313 314 312 312 313 314 317 319 320 322 322 317 318 317 316 319 318 316 316 315 315 320 323 322 318 317 320 322 323 321 321 328 332 329 329 329 329 330 330 329 329 328 327 326 326 325 325 325 325
304 310 313 312 314 314 305 302 307 310 311 312 313 313 312 312 313 312 310 308 309 310 309 309 310 311 312 311 313 314 314 316 317 317 317 317 322 324 319 315 318 316 313 312 312 316 319 321 324 324 320 318 317 317 320 320 317 317 316 316 317 319 320 321 320 319 319 323 325 325 328 331 329 327 328 329 328 329 329 328 327 326 325 324 324 324 325 326
308 311 312 312 313 313 309 308 310 311 310 310 310 309 310 311 311 310 309 309 309 309 308 309 310 311 312 312 314 314 315 316 317 317 317 319 322 322 320 318 319 319 318 315 314 317 320 322 324 325 320 318 318 318 317 318 317 317 316 317 317 318 320 320 321 321 318 320 327 332 332 331 329 326 326 328 328 328 328 327 326 326 325 324 324 324 325 326
310 311 312 311 312 311 310 310 311 310 310 310 308 308 309 310 309 310 310 310 308 308 309 309 310 311 311 312 313 312 313 316 316 317 319 322 323 321 320 320 319 319 322 321 319 320 325 325 323 322 320 318 318 317 317 319 317 317 317 316 316 318 318 319 324 327 322 321 327 333 334 331 327 326 325 325 327 327 327 326 325 324 324 323 323 323 324 324
311 312 312 312 311 310 310 311 311 311 310 309 308 308 310 310 310 309 309 310 309 307 308 309 311 311 310 311 311 310 314 316 314 316 319 322 326 323 320 321 320 319 324 326 324 323 324 323 321 320 320 320 319 317 317 317 316 317 319 318 317 316 316 320 330 335 331 327 327 329 330 329 327 326 325 324 325 326 325 325 324 323 323 323 322 323 323 322
312 311 311 312 311 310 311 313 313 312 311 310 309 309 310 310 310 309 308 310 310 308 309 311 311 311 310 310 311 311 314 316 315 316 319 321 325 323 320 321 321 320 324 327 326 325 323 325 327 323 320 321 321 319 321 323 322 320 321 323 321 317 320 323 329 335 332 326 326 331 332 329 328 327 326 324 324 325 324 323 323 322 322 322 322 321 321 321
312 311 312 312 310 310 313 315 315 315 315 313 312 312 312 311 310 310 310 310 311 311 312 313 312 311 310 310 312 311 312 314 315 315 318 321 322 320 319 320 320 321 324 325 324 325 324 326 329 327 325 326 324 322 326 328 327 324 323 325 323 321 326 328 328 333 331 325 328 333 332 329 328 327 325 324 324 323 322 322 321 321 321 320 320 319 319 319
311 312 312 312 311 311 313 315 315 316 317 316 315 314 313 312 312 310 309 311 311 311 312 313 312 312 312 313 314 313 311 312 313 313 317 321 321 320 319 319 319 321 324 323 322 324 327 327 328 327 328 328 325 324 325 325 325 325 324 325 325 324 327 330 332 333 329 328 328 327 327 329 329 327 325 324 322 321 320 320 320 320 319 319 318 317 316 316
310 311 312 313 313 313 314 315 315 316 317 316 315 314 313 313 313 311 310 310 311 311 311 312 311 312 314 315 316 314 312 313 314 315 318 320 320 320 319 318 320 321 322 321 321 325 329 328 328 328 326 325 324 324 324 322 322 324 325 325 325 326 328 331 334 331 329 332 329 324 326 329 328 326 324 321 320 319 319 319 318 318 318 317 316 315 314 314
310 311 312 313 314 315 315 315 314 314 316 315 314 314 314 314 313 313 312 309 310 311 311 313 313 311 312 313 316 317 313 314 317 318 318 320 320 322 322 321 320 320 320 322 321 323 327 325 326 327 326 324 324 324 323 322 322 322 323 323 324 326 328 330 330 328 330 333 328 324 326 327 325 323 321 319 318 318 317 317 316 316 315 314 314 313 313 313
311 311 311 312 314 315 314 314 313 314 316 315 315 314 314 314 314 314 312 311 312 311 312 315 315 311 310 311 315 318 315 316 320 319 318 321 322 322 324 324 321 318 322 327 326 323 325 324 323 325 326 325 327 325 322 322 323 322 321 321 322 323 325 327 328 328 328 328 324 323 324 323 321 320 317 316 315 314 314 313 313 313 313 312 312 311 311 311
311 311 311 312 313 312 311 312 313 315 315 314 315 314 313 315 315 313 311 313 316 315 313 314 315 311 311 311 314 317 318 319 321 319 317 323 324 322 322 323 322 319 321 328 327 322 323 324 322 323 325 325 326 325 322 322 322 321 319 319 320 322 323 325 326 327 327 325 322 321 321 320 319 317 315 313 312 312 311 310 310 310 310 310 310 309 309 309
311 312 311 312 313 312 311 313 313 314 315 314 315 314 313 315 315 313 313 312 314 315 313 313 315 313 313 313 314 315 315 316 317 315 313 319 322 321 321 321 321 321 322 324 323 321 323 324 321 322 325 324 323 324 323 323 323 321 319 317 319 322 323 323 323 324 325 325 322 322 322 320 317 314 311 311 310 310 309 309 308 307 307 308 308 308 308 308
311 311 311 312 314 313 312 313 313 314 314 314 314 313 313 314 313 312 314 312 310 312 312 312 314 315 314 315 315 313 312 312 312 311 311 313 314 315 317 317 317 319 321 323 323 322 323 323 322 323 325 322 322 324 324 324 325 323 319 315 317 320 320 320 320 320 322 323 322 322 321 317 314 311 309 308 308 307 307 307 307 306 306 306 306 306 306 306
Wind_Speed
8 8 8 8 8 8 8 8 8 9 9 9 9 9 9 10 10 10 9 9 9 9 9 9 10 10 10 10 11 13 13 13 12 15 18 12 11 14 14 13 11 9 10 11 11 13 14 15 17 13 7 10 12 15 15 15 18 13 5 4 5 4 5 6 3 1 2 0 5 7 7 5 4 6 3 4 6 14 22 20 22 22 20 20 21 20 18 18
9 8 9 9 9 9 9 9 9 9 9 9 10 10 10 10 11 10 10 10 9 9 9 10 10 11 11 10 11 13 14 15 15 20 19 8 10 14 13 13 11 10 10 12 15 15 14 14 14 10 10 14 13 15 14 12 15 10 3 4 5 5 7 10 6 4 4 2 4 6 6 4 4 9 4 4 5 15 18 15 23 25 23 21 20 20 19 17
9 9 9 10 10 9 9 10 9 9 10 10 10 10 11 11 11 11 11 10 10 10 10 10 11 11 11 10 11 14 14 15 17 22 17 10 14 13 13 14 13 13 11 13 14 14 12 11 10 9 14 14 14 17 14 12 12 11 7 4 5 6 8 15 10 8 10 8 7 6 7 6 6 8 3 6 7 11 12 10 16 21 23 22 20 20 18 17
10 10 10 10 10 10 10 10 10 10 10 10 11 11 12 12 12 12 11 11 10 10 10 10 11 11 11 10 11 13 14 14 13 15 9 8 14 13 14 13 12 14 12 13 14 13 11 11 10 12 15 12 16 18 13 13 11 9 9 5 5 7 8 13 9 11 12 13 7 8 9 9 4 8 3 10 7 4 9 12 15 21 26 24 21 18 15 17
11 10 10 11 11 11 11 11 11 11 11 11 11 11 12 12 12 12 11 11 10 10 10 10 11 11 11 9 11 12 10 7 4 5 2 3 7 10 12 11 11 13 13 15 16 16 15 16 16 16 14 9 12 13 11 18 15 6 8 10 11 11 9 8 9 10 9 10 5 6 6 8 6 6 6 8 5 1 10 16 19 24 25 23 21 17 15 16
10 10 10 11 12 12 12 12 12 12 12 11 12 12 12 13 13 12 11 10 9 9 9 10 10 11 10 8 10 11 6 1 2 1 1 2 2 7 8 8 10 11 14 18 18 17 15 16 17 15 12 7 8 8 11 20 17 6 6 10 14 16 11 12 10 6 8 7 3 4 5 8 8 5 7 8 9 3 18 21 21 22 23 20 19 17 16 16
10 11 11 11 12 12 12 12 12 12 13 12 13 12 13 13 13 12 11 10 9 9 9 10 10 10 9 7 9 9 9 11 7 1 4 4 2 5 6 7 9 11 18 21 20 16 13 15 17 14 9 5 9 9 13 17 16 9 6 7 13 17 13 15 11 4 5 3 3 6 8 8 5 3 6 11 12 10 26 22 21 21 21 20 17 17 15 15
10 10 11 11 12 12 11 11 12 13 14 14 14 13 13 13 13 12 11 10 9 9 9 9 9 10 9 7 6 8 12 13 7 3 6 5 3 5 7 7 8 13 20 23 21 15 10 14 18 16 8 6 11 11 13 14 12 8 7 9 13 16 15 15 12 7 5 3 5 8 7 9 8 8 7 11 11 15 29 23 22 21 19 17 15 15 14 13
10 10 11 11 12 11 11 11 12 14 14 14 14 14 14 13 13 12 11 11 9 9 8 9 9 9 9 7 5 6 10 8 2 3 7 7 5 6 8 9 10 14 21 24 19 13 11 15 18 17 9 9 14 11 11 9 6 11 11 13 11 13 16 14 11 8 4 3 7 7 6 10 12 11 7 13 12 15 28 24 24 21 18 16 15 14 12 11
10 10 10 11 12 11 11 12 13 14 15 15 15 14 14 13 13 12 12 11 9 9 8 9 9 7 8 6 3 2 5 4 2 5 7 9 9 9 11 11 11 15 21 23 18 14 14 15 16 18 13 12 12 10 12 10 6 11 12 12 12 14 15 12 9 8 6 8 10 6 5 10 12 8 4 13 11 21 27 23 23 18 16 13 14 14 12 11
10 10 11 11 11 11 12 12 14 14 15 15 15 15 14 13 12 12 12 10 9 9 8 9 8 7 7 5 6 5 5 3 5 6 8 11 11 11 13 13 13 15 22 22 15 12 12 13 15 15 10 8 9 11 12 11 11 10 6 7 11 12 11 11 10 9 7 6 8 7 7 10 10 6 6 15 14 24 25 23 20 14 13 11 11 13 12 11
11 11 11 11 11 11 11 13 14 15 15 15 15 15 14 13 12 12 11 10 9 8 8 9 8 8 7 9 15 11 8 5 2 7 7 7 8 8 10 12 13 16 20 19 12 10 12 14 14 12 7 4 6 7 8 12 15 14 9 4 6 6 7 10 9 11 8 3 7 8 5 7 7 9 13 19 13 22 24 22 20 14 14 11 10 12 12 10
12 11 12 12 11 11 11 13 15 15 14 15 15 14 14 13 12 11 11 10 9 8 8 8 8 8 7 11 15 7 7 7 4 9 10 5 6 7 8 10 12 16 17 15 10 10 14 14 11 10 10 8 5 6 11 16 14 10 7 4 3 4 5 10 10 13 10 6 12 8 3 7 5 11 19 23 16 23 25 23 22 17 14 11 11 13 10 8
12 12 12 12 11 11 12 14 15 15 14 14 14 14 14 13 11 11 10 9 9 8 8 7 7 8 8 13 12 6 9 9 9 13 12 7 9 9 9 8 10 16 14 10 8 9 11 11 10 10 12 9 9 12 12 11 9 5 3 3 2 2 6 8 9 12 10 10 13 10 4 7 5 12 18 23 20 25 25 23 25 19 15 13 13 14 9 8
12 12 12 13 12 11 12 14 15 14 14 13 13 14 13 12 11 10 9 9 8 7 7 7 8 8 8 16 13 6 11 12 14 16 12 9 12 11 12 10 10 13 9 8 9 7 7 7 7 8 10 10 10 9 6 4 4 2 2 4 3 4 8 8 9 13 10 9 15 12 4 7 6 14 20 27 22 24 24 22 25 21 18 16 15 15 11 10
12 12 12 13 13 12 12 13 14 14 14 13 13 14 13 12 10 10 9 7 6 6 4 3 5 6 5 10 8 6 13 17 17 17 14 13 16 13 13 13 11 11 10 10 9 6 7 7 6 8 9 8 6 4 4 4 4 3 4 4 4 5 7 7 9 15 13 8 11 9 3 6 5 13 22 24 21 29 25 21 25 24 21 18 16 14 12 12
12 12 13 14 14 13 13 13 14 13 13 12 13 13 11 11 10 9 8 6 5 5 4 2 1 6 9 6 5 10 18 20 16 16 16 15 17 14 14 16 14 13 11 10 10 6 6 8 6 6 7 5 4 4 3 4 4 3 4 4 5 7 7 5 5 12 14 7 7 8 5 7 8 12 13 7 26 29 25 22 26 26 24 22 19 17 15 15
12 12 13 14 14 13 13 13 13 12 12 11 12 11 10 11 11 10 9 6 4 3 4 4 2 3 9 10 11 13 19 20 16 16 16 16 18 15 14 15 13 12 10 8 10 9 7 8 6 3 4 4 4 4 4 5 6 4 5 4 5 8 7 5 4 9 12 8 8 8 7 9 9 11 5 14 23 24 24 24 26 27 27 26 22 22 20 19
13 13 13 14 14 13 12 12 12 11 11 10 10 10 9 9 10 9 7 8 9 6 1 9 15 4 4 10 14 11 17 19 15 16 17 18 19 16 14 13 11 12 9 4 7 11 8 5 5 4 3 5 6 6 6 8 9 7 5 4 5 6 8 7 8 10 11 8 6 8 7 8 7 9 6 7 16 25 26 23 25 27 27 26 25 25 24 22
13 13 14 14 13 13 12 11 11 10 10 8 8 8 5 6 5 2 5 11 15 14 8 11 24 18 12 13 13 5 16 17 15 19 19 18 18 17 17 15 12 11 7 4 5 11 10 4 4 6 5 7 8 8 10 10 9 8 6 6 5 5 8 5 9 9 8 7 5 7 5 6 6 7 7 4 7 18 23 20 21 24 26 27 26 25 24 23
14 13 14 14 13 12 11 10 9 9 9 6 6 7 3 2 3 2 3 11 18 20 20 18 22 24 21 18 12 6 18 16 17 20 18 20 19 14 15 17 10 7 7 8 7 8 9 4 5 8 8 10 9 8 10 10 9 8 6 7 6 4 8 3 10 9 5 6 5 4 3 4 6 7 9 5 1 8 19 21 19 23 26 28 28 27 26 23
13 13 13 13 12 11 10 9 8 7 7 6 7 8 5 2 6 7 7 10 18 21 24 24 22 26 26 23 17 9 15 13 16 21 20 22 19 12 13 15 7 5 8 9 6 5 5 5 8 10 9 10 10 9 9 10 9 7 5 5 5 5 7 3 5 6 5 4 3 3 2 6 6 6 9 8 4 9 24 29 28 30 28 27 30 30 28 24
13 13 13 12 11 10 9 8 6 5 5 5 7 8 5 3 8 9 10 8 15 21 23 26 27 27 28 26 20 15 16 11 14 22 24 22 21 18 13 10 7 7 7 8 6 4 4 7 11 12 10 9 10 11 9 8 7 5 6 4 4 6 6 4 1 4 6 3 3 5 3 4 5 5 7 10 13 8 24 33 34 35 33 32 34 33 33 28
13 13 12 11 10 9 8 6 3 2 3 4 5 4 3 4 8 9 10 7 9 15 22 27 28 27 28 24 16 14 15 12 13 22 27 23 22 20 12 10 9 6 7 9 10 8 6 10 14 12 11 10 9 10 8 6 4 4 5 3 2 7 6 5 3 1 1 1 3 6 2 3 4 5 6 9 14 11 14 24 27 32 35 36 36 36 37 35
13 12 11 9 9 8 7 3 3 3 1 2 1 5 3 4 5 8 8 5 5 9 15 20 24 24 26 23 16 14 14 13 13 18 31 28 22 17 10 12 11 6 9 12 11 9 9 13 16 13 11 11 10 9 7 7 3 2 2 2 4 9 9 8 8 5 4 5 2 5 3 5 5 6 8 8 7 9 10 13 17 27 32 32 34 36 35 36
12 11 10 7 8 7 5 3 6 4 2 1 5 6 4 4 4 8 5 2 4 4 4 11 17 17 21 24 22 16 10 11 18 17 29 31 24 19 10 9 9 6 9 10 7 5 8 10 12 13 14 13 11 9 9 7 4 1 2 4 7 8 9 10 9 5 1 3 3 5 4 4 5 5 8 8 8 9 9 9 11 22 31 31 33 34 32 33
11 10 8 6 7 7 4 4 5 5 2 5 7 3 2 4 6 6 1 1 4 4 6 10 13 12 16 22 23 15 4 10 19 20 27 30 25 21 11 5 6 7 8 7 5 4 7 10 8 9 12 12 10 7 7 7 5 1 4 6 8 8 9 10 9 7 3 3 3 2 2 2 4 6 7 6 7 8 8 9 10 14 28 37 35 34 34 34
10 9 7 5 6 6 5 6 6 4 1 6 7 5 4 8 6 2 1 1 2 6 7 7 8 9 14 20 24 18 9 10 11 15 25 27 23 19 11 7 6 7 9 6 4 4 8 11 10 8 7 6 6 5 4 6 5 3 5 8 10 7 8 8 6 6 3 1 3 3 1 2 4 5 7 7 5 1 4 6 4 3 12 31 34 29 31 31
9 8 6 5 6 6 6 10 8 4 2 3 5 1 7 7 3 0 1 1 2 4 7 8 7 8 13 18 21 19 15 11 5 14 24 24 22 16 7 11 10 6 10 8 5 6 6 11 13 9 6 5 4 4 4 4 3 5 7 8 9 6 5 1 1 3 3 1 3 3 1 2 5 5 5 5 3 2 5 7 8 14 19 24 24 20 22 24
9 8 6 6 7 8 9 10 7 4 4 2 1 4 5 3 0 1 1 2 3 4 7 8 8 9 11 11 12 13 13 13 8 16 22 20 24 17 8 12 13 6 6 8 8 9 8 11 14 7 4 5 3 3 3 4 5 5 6 6 6 6 3 1 3 2 4 2 4 5 4 4 4 5 4 2 2 1 5 7 7 13 23 25 23 20 21 23
9 8 7 8 8 10 12 9 5 4 4 3 3 4 2 1 0 2 2 3 2 3 5 4 6 10 12 9 7 9 10 11 9 13 14 11 16 13 6 6 8 4 3 3 6 11 10 8 7 3 4 6 3 2 5 8 9 6 5 4 2 4 2 3 4 3 1 4 4 4 5 4 3 3 3 4 4 5 6 8 8 9 15 21 22 23 22 19
10 9 9 9 10 13 12 8 7 6 6 5 4 3 0 1 1 2 3 5 2 3 4 5 8 9 12 10 7 9 9 8 8 9 10 6 6 7 5 4 3 2 3 3 3 8 8 5 3 3 6 9 6 4 5 7 7 6 5 3 3 1 2 1 2 1 2 5 5 6 7 5 4 4 2 6 7 8 9 9 11 11 13 17 17 17 15 12
9 11 11 10 12 15 12 9 10 8 8 6 4 3 1 2 2 4 5 4 1 6 4 9 12 10 11 10 7 10 9 7 8 7 8 9 6 6 7 7 6 4 3 4 3 5 5 5 5 4 5 8 7 4 3 5 3 5 5 4 4 2 1 2 3 2 3 5 6 7 5 3 1 3 3 7 8 10 14 17 19 18 15 15 14 12 9 8
10 11 11 11 14 16 13 13 11 7 7 5 2 1 1 1 3 5 6 5 3 6 6 9 13 11 11 9 7 10 9 6 8 7 6 8 6 5 7 9 10 6 3 3 3 4 4 4 5 5 4 9 8 5 5 4 3 4 4 4 5 4 3 3 3 3 4 3 4 2 2 2 3 3 4 6 12 16 20 21 23 24 20 15 14 16 14 12
10 10 11 12 14 13 13 15 13 8 6 4 0 1 3 2 3 3 4 5 5 8 7 10 14 9 9 9 9 12 11 6 9 9 5 6 6 5 6 8 11 8 4 3 3 2 4 4 7 9 9 10 9 7 5 4 2 3 4 5 4 5 5 4 4 5 4 2 2 1 2 0 2 3 4 8 13 16 20 22 23 24 22 19 17 20 22 20
9 8 10 11 10 9 12 16 15 12 8 3 1 2 3 3 3 3 2 3 6 7 5 6 7 2 3 5 5 8 11 8 8 8 5 6 7 7 6 6 10 10 6 5 2 2 3 4 7 13 12 9 11 10 9 6 3 3 4 6 6 6 6 3 4 3 4 3 2 2 2 3 1 2 5 8 11 11 14 17 19 21 22 23 23 24 26 25
8 8 10 9 6 7 12 17 16 14 9 2 2 2 3 5 6 6 4 4 8 9 5 1 3 0 2 3 3 5 9 8 7 7 5 6 6 8 9 7 11 13 10 8 3 2 4 4 5 8 7 11 17 14 11 10 8 4 4 6 6 5 4 3 1 2 3 2 3 3 5 1 1 0 4 5 9 9 10 11 15 20 22 22 22 23 26 26
7 7 10 7 7 7 11 17 17 14 8 2 3 3 5 5 9 10 6 5 7 8 5 2 2 3 3 3 5 6 8 6 6 6 4 5 5 8 10 8 11 15 16 13 6 3 4 3 5 1 1 7 14 10 6 9 11 7 4 5 4 4 4 3 2 2 2 2 3 2 5 2 2 0 4 5 7 7 8 9 11 15 18 18 19 21 22 24
5 4 6 4 8 7 11 16 17 13 6 3 2 3 4 5 13 13 3 3 4 5 4 3 1 2 2 3 4 4 9 8 6 5 4 3 3 4 3 3 8 14 18 17 8 3 3 1 3 3 2 4 7 5 4 6 8 6 5 5 1 4 4 3 3 4 3 3 2 1 3 2 0 0 4 5 6 6 6 7 9 12 15 16 16 19 20 21
2 1 4 5 11 10 12 16 15 9 4 3 3 5 6 7 13 9 2 5 3 4 3 5 5 4 5 6 5 2 5 7 5 4 3 1 0 3 5 5 1 3 11 17 11 4 2 3 1 5 4 2 3 4 6 6 6 5 4 3 2 1 2 1 2 3 4 3 2 3 1 3 2 2 2 3 4 6 8 8 8 11 16 16 16 18 19 20
3 2 2 9 15 14 15 14 9 5 3 2 4 7 7 9 9 2 6 3 3 5 3 3 5 3 3 6 5 6 2 3 3 2 2 3 4 1 7 9 7 6 4 10 9 4 3 3 3 4 3 3 4 5 8 7 6 6 5 4 4 2 2 2 3 3 2 3 3 4 2 4 2 3 3 2 3 5 11 12 10 12 16 16 16 18 20 20
0 3 1 10 15 17 16 9 4 4 3 5 7 8 9 10 6 3 6 3 2 4 4 2 3 3 3 4 4 6 4 2 4 3 2 4 4 2 10 17 12 8 5 1 2 3 1 4 4 2 3 4 6 4 7 9 6 4 4 5 6 4 2 3 3 4 1 2 2 4 3 3 2 3 4 3 5 8 15 16 12 13 14 14 16 18 20 21
3 5 3 9 14 17 13 3 4 5 4 7 10 14 15 9 2 4 3 1 3 2 3 2 3 3 3 4 5 5 4 4 4 3 3 4 3 5 14 21 16 10 6 2 3 8 6 3 4 1 2 4 8 8 3 5 4 2 2 2 4 7 6 5 5 3 3 2 2 4 2 3 1 3 5 8 10 13 16 16 14 14 14 14 16 17 18 20
4 6 2 7 13 16 10 2 3 4 5 8 10 14 12 4 3 3 2 0 2 2 1 2 3 2 3 3 4 5 4 4 2 2 3 2 3 10 18 20 15 9 6 4 4 5 3 1 3 3 2 3 6 8 6 4 3 2 4 8 7 2 1 1 2 4 2 2 4 6 2 3 2 4 6 8 10 11 15 16 14 14 15 16 17 17 17 19
3 4 3 6 13 15 8 4 3 2 4 6 8 9 6 3 3 6 5 5 5 1 3 2 4 4 4 3 4 5 4 3 2 2 4 2 3 10 16 16 15 10 7 10 11 5 0 1 2 5 4 2 1 2 2 3 4 2 6 12 12 8 6 4 3 5 3 2 3 4 3 2 4 6 6 7 7 9 13 15 15 15 17 18 18 18 18 19
1 1 2 5 12 14 12 11 8 5 4 5 5 4 4 2 3 4 4 6 6 4 4 1 4 5 5 4 4 5 5 5 4 2 4 4 3 6 11 13 15 13 11 15 18 9 2 2 4 6 5 5 4 3 3 3 3 5 10 12 10 7 6 7 4 3 2 2 5 4 1 6 6 6 7 7 7 8 10 12 13 14 17 19 19 19 19 19
1 1 1 3 6 9 9 11 10 6 6 6 2 2 3 3 2 1 2 3 4 3 2 3 3 2 3 3 3 4 5 6 7 5 5 6 4 3 9 12 12 14 12 12 15 8 3 4 4 5 5 4 5 4 1 1 6 9 10 10 10 8 7 8 6 2 2 4 2 4 1 6 6 5 8 8 7 8 9 11 13 14 17 19 19 18 18 19
2 3 4 0 2 4 4 9 9 6 8 8 2 0 2 3 2 2 2 5 4 0 2 3 4 4 2 1 2 1 2 3 6 5 3 4 3 2 6 8 8 11 9 7 10 6 4 3 4 4 5 4 4 5 5 5 7 10 12 10 10 10 8 7 5 3 4 4 4 5 3 5 5 7 8 8 8 10 12 15 17 18 19 19 18 17 17 17
4 4 5 3 3 3 6 11 10 6 7 7 1 0 2 3 2 2 1 3 2 1 3 2 3 5 4 2 2 3 1 2 4 3 1 2 4 2 3 3 4 7 6 4 5 4 3 2 3 2 4 4 5 6 7 7 7 10 12 11 9 9 9 8 5 4 6 6 7 9 9 5 4 7 9 11 14 16 19 19 19 19 18 19 18 17 15 15
3 3 4 6 7 9 11 14 11 6 5 2 1 1 2 1 2 2 2 2 1 1 0 1 3 4 5 7 5 4 3 5 5 2 2 3 1 1 1 0 1 2 4 2 2 3 4 1 4 2 4 2 5 6 7 8 9 10 12 11 9 8 9 8 6 6 5 7 8 10 10 5 4 8 12 15 17 19 20 19 18 17 17 18 18 16 14 14
4 7 6 5 5 9 12 10 5 3 2 0 1 1 1 2 2 1 1 1 0 3 3 0 3 4 7 9 7 5 5 7 5 4 4 2 2 4 3 3 4 3 2 1 0 2 3 2 2 2 3 1 2 6 7 8 10 10 10 10 10 6 5 5 5 4 3 7 9 8 6 3 4 10 14 16 18 19 18 15 15 16 17 17 17 16 15 14
6 8 8 5 5 8 9 4 3 2 1 1 2 2 0 2 3 3 0 3 3 1 3 3 5 5 5 6 6 6 8 9 9 8 10 10 6 5 8 8 5 4 3 1 1 1 2 3 1 2 3 1 1 6 7 6 7 5 3 5 7 4 3 4 6 7 6 5 6 4 3 4 6 9 11 12 14 17 17 15 13 14 16 18 17 16 15 14
Wind_Direction
272 270 271 269 266 266 269 274 277 280 282 283 283 282 282 282 281 281 281 281 282 283 285 289 289 291 293 296 299 293 289 282 276 264 261 260 238 234 231 231 235 238 236 224 204 191 191 193 195 185 196 233 239 241 242 251 249 231 214 223 244 255 244 269 283 119 139 100 51 67 11 4 65 3 21 343 335 86 86 81 81 88 102 117 133 141 143 149
268 267 268 268 266 265 268 270 273 277 280 282 282 280 279 277 277 277 277 278 280 282 285 287 287 290 291 297 300 297 292 289 282 262 255 246 229 232 227 229 234 238 233 214 199 188 188 193 194 188 212 231 227 230 236 240 240 227 199 220 227 242 248 273 297 77 94 30 26 89 68 16 9 0 16 322 352 94 91 84 90 93 104 118 131 139 142 152
263 263 264 266 267 266 268 270 272 275 278 282 282 282 280 277 275 275 275 276 277 281 284 285 285 286 289 297 301 298 298 300 289 270 263 244 234 233 227 228 229 235 231 210 196 186 188 193 190 199 217 228 231 228 227 228 232 220 214 242 237 239 260 282 309 57 56 36 22 38 40 343 353 23 15 324 356 100 118 120 112 112 120 127 134 140 143 154
261 262 262 264 264 264 267 271 273 276 279 281 281 283 281 279 278 277 277 276 278 282 283 283 283 284 288 298 300 301 311 313 291 275 274 239 228 226 225 222 223 229 221 198 185 181 200 218 209 209 217 226 234 233 226 218 218 207 208 230 255 277 282 291 339 54 51 50 34 343 350 323 12 79 356 316 339 98 146 144 133 134 134 136 140 144 144 151
262 263 263 262 263 263 267 271 274 277 279 279 280 281 281 281 280 279 280 280 283 284 284 285 283 285 286 295 299 302 321 333 293 274 270 218 214 212 212 210 220 224 207 187 180 186 204 228 226 215 218 230 235 237 235 219 210 206 224 230 244 267 269 290 356 62 69 54 33 317 322 314 2 57 332 306 303 270 164 145 132 137 138 143 146 149 151 150
265 264 263 263 266 269 271 272 274 277 278 279 280 280 281 282 282 283 283 285 289 288 288 287 285 285 285 293 297 298 310 259 164 84 307 322 243 199 194 204 221 214 195 182 182 193 203 226 233 218 214 234 243 239 241 223 209 220 254 241 242 248 250 278 312 71 84 53 25 311 303 320 9 8 316 293 294 150 148 137 124 133 136 141 143 147 155 155
267 266 263 263 266 271 273 275 277 279 279 279 279 280 282 283 285 286 287 290 291 289 288 286 286 286 286 292 290 290 277 247 217 218 272 291 290 197 192 214 222 205 189 181 185 193 202 223 230 224 212 224 250 249 250 231 210 222 255 249 256 256 258 271 281 52 54 18 312 299 308 319 3 332 294 290 302 116 132 128 122 130 134 140 143 147 155 159
265 265 264 263 265 270 273 277 280 281 281 280 280 280 281 284 286 287 289 290 288 286 283 282 284 287 291 295 302 294 271 257 241 245 246 233 250 220 212 224 217 203 191 182 184 186 206 227 227 229 215 211 238 239 247 240 214 221 251 249 263 269 272 279 284 300 302 293 281 277 282 285 276 274 267 279 298 117 127 127 127 127 125 135 140 144 149 156
263 263 263 264 265 268 272 278 280 281 283 283 283 282 282 284 285 286 286 284 282 280 277 278 279 284 294 298 325 302 267 274 279 204 216 210 243 243 234 236 220 206 193 183 182 188 224 234 228 231 228 240 248 249 263 270 211 200 228 242 248 262 269 281 283 277 277 254 257 251 251 255 249 258 256 266 278 123 124 122 126 126 122 127 131 137 143 151
262 260 261 263 264 268 272 277 279 282 285 285 285 284 284 284 285 285 283 281 279 276 272 272 272 275 289 291 325 294 243 273 235 201 226 232 246 250 246 243 224 206 193 186 184 196 225 230 228 236 247 262 265 277 281 281 242 208 224 245 247 258 267 277 277 260 243 235 244 240 254 263 252 249 221 242 224 129 125 123 123 121 119 130 134 138 142 149
263 259 259 260 264 271 274 279 281 283 286 285 286 285 285 286 286 285 283 282 276 272 266 262 267 267 269 253 242 227 182 199 237 241 247 238 244 250 249 238 217 204 192 188 189 197 217 225 232 239 244 261 268 280 280 283 290 277 271 263 255 266 282 290 295 282 252 209 234 246 256 272 268 254 226 239 205 138 132 130 125 119 120 134 139 144 147 144
265 260 259 259 264 271 278 282 282 284 286 286 286 286 287 286 285 284 282 283 275 269 261 255 258 258 260 249 242 225 172 160 236 271 266 240 235 235 237 227 205 195 189 187 196 216 231 240 247 252 256 281 273 272 303 313 305 291 285 282 271 287 290 274 267 268 264 175 226 242 263 266 252 241 240 251 219 148 139 134 132 129 128 137 141 146 149 144
268 262 262 261 265 270 277 281 281 285 285 285 287 286 286 284 283 284 281 279 273 264 255 250 252 255 260 256 246 216 182 179 185 252 263 240 203 191 200 215 198 186 184 183 200 238 248 249 260 283 295 303 293 294 317 313 298 280 272 271 296 317 273 245 234 241 239 222 224 209 266 262 234 236 235 246 220 150 138 139 138 133 133 147 148 141 140 146
271 266 267 266 267 271 279 282 283 284 283 284 285 284 283 280 281 282 280 278 272 263 253 244 248 245 240 256 257 227 214 206 194 229 247 216 177 171 178 205 199 178 176 190 219 253 248 244 263 293 300 289 291 306 316 310 292 279 280 270 245 276 265 237 218 219 217 221 199 167 236 253 253 256 240 243 218 151 137 138 140 141 143 151 145 133 122 131
273 271 272 273 272 275 282 285 284 283 282 284 283 282 280 279 281 280 279 277 267 259 247 236 237 229 245 270 272 223 198 200 203 214 226 201 178 179 183 198 203 184 193 231 242 254 227 227 255 271 282 279 284 295 299 301 281 235 242 277 215 211 255 250 224 210 204 192 158 140 245 257 250 255 251 249 220 151 136 136 137 144 150 155 148 136 125 129
274 272 275 279 279 280 284 283 282 281 283 283 281 280 278 279 279 275 277 273 261 250 228 212 233 228 260 282 275 216 198 198 202 206 213 201 185 189 190 194 210 215 233 235 230 240 217 223 251 248 258 272 271 254 264 296 284 211 187 237 232 222 250 263 238 207 194 176 147 138 242 274 256 263 270 250 192 142 136 140 141 146 151 158 154 145 141 143
276 275 278 283 284 283 285 282 280 280 282 282 278 276 276 279 275 271 274 261 244 224 194 123 14 262 256 260 258 234 214 203 200 200 205 201 191 197 195 193 204 215 223 218 219 233 222 220 232 246 244 244 247 226 235 261 255 233 201 222 242 242 249 260 230 190 181 167 153 155 210 260 259 281 299 171 146 139 144 149 148 150 153 158 158 156 155 157
281 278 281 287 286 285 285 281 279 279 281 279 277 277 274 274 273 271 265 239 201 170 210 211 157 286 257 239 254 241 211 204 203 198 198 198 196 199 198 193 194 202 209 213 223 226 218 213 205 230 242 229 244 212 195 223 228 218 198 207 241 251 254 236 184 174 176 161 151 161 208 250 260 283 307 130 139 143 151 155 152 154 156 158 161 159 159 163
286 283 286 288 287 285 284 280 280 280 279 279 279 278 276 279 280 275 249 200 177 160 203 199 184 197 280 243 263 250 205 200 194 191 195 195 194 194 192 192 193 201 203 193 214 213 202 200 201 223 243 227 230 212 217 234 238 243 221 213 235 252 262 223 175 176 175 153 150 166 203 244 268 284 282 175 163 149 148 154 152 156 159 160 164 163 161 161
291 289 289 289 287 286 284 281 282 280 280 281 276 273 277 294 295 272 205 205 215 220 243 215 201 223 269 269 281 234 180 189 188 189 194 188 191 198 190 184 193 204 206 179 196 205 194 187 209 215 224 230 232 222 237 253 256 272 281 284 278 268 281 243 157 169 155 128 187 190 189 248 278 291 301 275 178 142 139 147 150 156 159 162 168 168 163 156
296 293 289 291 288 287 285 282 282 281 285 281 271 264 248 333 357 4 249 247 255 250 256 254 226 238 265 272 278 165 154 174 189 189 191 186 190 204 186 177 187 201 210 209 204 201 191 192 221 220 223 232 241 231 238 259 271 280 286 293 306 306 296 260 150 165 127 112 199 170 100 292 291 290 297 304 240 138 143 148 154 161 164 169 174 173 169 159
299 293 292 295 289 289 285 282 281 277 285 272 267 265 238 44 16 333 309 278 277 269 260 260 245 246 258 264 264 206 162 175 187 184 188 187 189 199 177 173 195 195 202 215 208 189 191 215 223 222 227 228 241 244 236 243 253 271 278 286 301 303 306 313 136 138 108 117 201 120 105 274 278 278 287 292 275 171 161 161 165 167 168 173 176 174 173 167
297 293 297 295 289 290 282 282 286 283 296 270 271 273 247 22 14 328 315 290 281 273 256 249 243 241 245 254 255 212 183 187 184 180 184 184 188 197 181 172 208 203 193 212 208 180 190 223 218 218 228 225 235 245 236 236 241 245 248 254 275 278 292 305 326 129 143 169 156 130 161 269 296 303 304 294 289 236 171 169 171 173 174 176 177 176 176 177
296 294 298 294 288 287 280 289 293 307 323 258 273 301 260 4 11 332 310 284 279 271 252 239 233 231 230 239 239 198 196 211 198 180 178 182 188 196 199 186 199 216 201 205 212 211 216 214 208 214 228 225 234 248 239 228 238 244 233 198 250 280 289 293 307 95 140 314 114 120 72 325 289 281 293 288 289 275 197 178 171 176 182 182 179 180 181 183
297 296 300 297 285 280 285 284 183 156 148 206 24 30 17 10 357 320 308 277 257 263 255 231 220 223 219 222 226 203 201 224 231 188 173 183 187 186 211 201 192 223 211 207 212 218 235 215 197 202 224 229 231 243 241 216 209 270 241 189 243 280 299 307 321 7 23 326 316 99 59 305 268 238 257 268 272 269 239 209 183 179 185 184 179 181 184 184
296 298 301 294 280 278 274 208 179 182 174 72 28 20 5 3 304 287 298 303 264 233 213 192 197 210 207 212 218 204 188 214 238 211 175 183 190 184 206 205 189 217 212 213 216 206 239 226 196 193 207 222 226 232 237 209 159 62 232 217 227 254 284 295 304 329 80 257 285 92 121 270 295 259 244 242 248 258 253 243 212 183 178 182 184 182 182 184
296 299 299 286 275 273 247 197 196 217 235 21 30 35 319 299 282 280 288 325 270 173 141 160 176 190 193 198 200 192 181 201 219 220 185 181 191 193 205 206 183 216 221 217 223 205 219 227 229 209 198 209 219 222 217 170 132 188 244 251 237 228 250 261 266 266 221 219 317 47 151 251 288 271 258 242 245 261 269 267 249 202 177 178 183 182 182 188
296 296 291 273 262 265 253 237 227 212 296 21 62 79 308 281 272 283 104 301 240 143 136 158 168 179 181 183 185 188 210 195 191 214 196 183 191 195 204 227 203 214 225 215 217 220 201 209 234 234 205 204 201 188 166 138 134 196 214 245 250 227 231 247 258 264 247 194 328 336 314 300 273 270 283 272 262 310 348 335 332 12 152 168 174 174 177 184
293 292 284 260 247 247 241 238 228 199 268 5 86 64 299 283 269 5 108 228 209 148 152 157 149 176 180 173 178 189 212 223 188 193 195 188 195 201 210 234 238 239 234 227 223 243 220 202 212 223 216 202 177 157 151 145 166 197 205 235 262 257 228 190 38 316 344 66 255 259 200 270 280 289 298 280 288 90 73 36 39 55 84 130 148 150 160 172
289 285 275 255 233 227 234 232 215 188 216 223 181 264 286 284 343 65 122 223 220 155 157 152 142 178 186 166 176 190 210 244 233 183 187 183 190 209 239 238 246 265 246 233 228 253 263 217 207 218 206 161 120 126 166 216 222 206 211 227 264 277 254 73 59 31 12 322 242 237 205 207 260 301 350 27 331 270 110 73 52 63 81 105 123 139 159 173
282 279 264 252 227 224 241 232 189 169 181 188 239 263 295 352 56 133 174 266 264 135 135 147 149 172 181 167 180 196 203 245 237 172 177 179 181 205 243 243 250 277 278 262 236 250 263 237 217 234 188 140 111 227 205 226 233 210 204 196 222 296 333 12 1 41 336 261 254 263 258 235 230 267 344 23 26 31 66 87 86 71 77 97 120 139 154 166
278 276 259 251 233 226 233 207 171 173 173 177 217 238 176 100 196 206 252 312 296 178 162 172 173 173 182 181 182 191 195 233 234 174 168 168 167 193 199 202 205 197 266 275 241 246 249 242 243 237 202 167 158 218 211 223 228 200 195 149 120 318 8 33 312 340 228 245 228 231 251 249 226 236 327 19 30 42 48 66 77 78 93 107 117 130 139 134
275 271 257 251 240 230 222 187 172 180 179 174 187 213 182 131 208 224 245 298 201 183 174 163 174 177 178 187 191 184 189 216 215 188 171 163 161 187 193 210 205 165 212 230 215 229 244 262 259 245 208 174 164 169 188 221 200 161 176 138 129 160 131 200 237 229 225 242 224 203 216 238 242 277 332 29 32 43 54 60 59 62 89 107 92 83 89 83
274 270 262 253 243 234 219 193 182 183 176 165 166 196 164 190 243 222 230 268 245 232 232 163 166 182 178 191 205 179 184 219 199 176 167 165 167 183 186 211 223 204 194 235 227 187 196 240 242 251 212 173 179 180 178 210 189 168 179 147 150 163 159 204 207 198 214 254 263 177 137 189 167 250 289 48 48 44 51 56 57 58 70 82 65 53 52 45
274 270 262 251 240 233 218 197 190 188 164 142 60 190 179 211 257 239 242 274 277 264 244 163 160 182 182 194 212 186 178 202 193 177 167 163 169 189 184 195 219 222 188 200 258 198 199 222 205 223 224 177 172 189 199 236 249 209 182 153 182 187 170 211 218 191 164 83 326 22 78 263 157 242 297 60 56 45 48 48 50 55 60 64 52 43 44 40
277 258 254 251 235 225 210 191 190 186 157 138 241 198 214 232 240 247 266 290 299 295 263 162 150 166 178 199 230 197 183 190 184 171 167 176 178 189 192 186 202 218 203 173 234 226 203 247 199 202 216 180 160 177 194 212 232 236 200 183 207 198 163 183 251 237 113 98 272 172 105 325 6 335 344 58 58 39 41 40 42 46 49 51 44 41 45 47
275 247 253 247 206 202 197 184 185 177 155 179 233 203 244 249 253 273 302 311 317 317 294 181 119 153 185 209 258 204 186 193 181 166 174 190 187 189 198 198 189 206 217 196 215 238 195 261 236 192 202 183 171 177 190 200 207 226 235 206 200 204 189 163 232 301 81 120 257 162 142 224 129 313 325 52 66 40 32 35 38 41 44 46 43 48 57 58
289 266 262 227 156 165 182 179 179 167 156 228 252 249 259 262 270 285 314 327 330 332 323 41 125 210 192 205 242 200 170 175 175 170 179 185 192 192 194 200 187 196 214 209 219 255 194 251 294 275 207 184 172 172 195 214 215 217 241 235 180 168 213 204 179 231 126 146 267 150 124 86 77 253 323 28 69 53 37 41 43 42 47 50 48 56 65 65
324 300 279 202 156 172 172 168 169 162 174 231 222 249 252 256 260 262 306 6 326 319 334 15 347 267 302 281 260 182 163 169 167 163 173 181 214 229 209 210 195 193 203 203 207 251 190 138 306 278 267 206 179 173 191 217 227 236 266 274 207 145 175 197 191 184 147 156 229 107 83 39 334 305 355 22 59 67 55 53 56 56 56 54 52 55 60 63
37 319 300 149 165 186 163 154 162 170 205 230 221 249 251 262 258 245 70 42 331 311 347 355 345 356 333 306 325 18 168 166 142 141 159 132 14 301 339 10 44 221 215 202 193 206 184 108 226 270 309 298 214 187 181 186 195 218 255 270 268 182 148 130 243 194 145 150 182 123 77 274 242 113 64 49 65 80 83 73 63 65 63 57 54 55 55 58
85 256 294 137 160 176 156 151 172 199 230 245 246 254 262 280 272 175 86 64 315 310 299 313 331 355 325 313 354 3 333 142 98 105 120 51 65 49 341 3 29 12 284 213 194 179 160 140 186 257 312 301 250 188 176 190 184 175 193 214 220 210 130 107 293 270 143 127 159 142 169 265 270 99 101 74 43 77 91 87 74 69 71 62 56 58 57 59
173 256 184 145 171 175 157 158 213 207 217 237 240 247 254 266 275 68 73 119 191 287 270 263 315 309 301 318 351 351 338 38 38 35 101 65 60 48 2 8 23 33 30 205 247 352 56 131 146 222 240 249 272 248 190 202 215 192 188 204 203 199 165 153 212 252 182 90 88 107 121 265 281 101 119 96 59 73 86 90 86 76 74 68 61 61 61 60
270 275 175 161 189 182 160 179 241 205 239 250 246 254 254 255 294 31 37 130 165 219 256 293 332 319 327 344 348 347 0 49 39 12 68 72 30 24 27 26 30 31 33 42 336 347 0 96 127 182 292 311 312 309 272 196 203 238 292 279 213 208 205 184 177 175 155 152 127 99 97 254 238 101 117 106 82 76 79 83 84 77 72 68 64 64 63 62
302 293 228 177 193 188 177 209 225 208 249 253 250 258 265 297 3 327 344 194 226 181 112 326 338 331 309 327 348 353 15 47 53 52 75 84 25 34 37 36 40 41 29 19 341 336 350 46 109 98 28 347 330 325 340 8 26 30 19 16 7 336 160 124 88 80 102 186 142 125 163 241 175 128 113 99 82 72 72 74 75 73 71 70 67 65 64 65
318 289 255 195 186 193 215 265 272 267 270 271 270 262 274 330 285 281 326 322 286 120 110 302 338 2 329 344 10 350 355 20 29 101 97 95 51 41 36 39 48 45 23 13 5 358 89 24 80 109 130 161 214 296 309 320 320 351 31 27 18 17 50 72 65 63 54 340 63 103 158 173 144 132 115 99 87 76 71 72 70 69 71 73 71 67 65 65
345 254 242 191 184 203 240 262 263 274 281 284 289 275 289 317 242 261 328 323 315 40 87 338 4 13 342 5 24 348 339 353 352 19 73 68 63 31 26 40 46 33 24 22 13 12 92 40 60 104 120 147 157 174 219 263 340 32 31 27 22 20 58 86 88 78 100 78 37 3 143 135 138 133 114 100 86 79 74 72 70 67 69 70 68 67 66 63
353 301 249 150 188 219 249 260 251 244 257 256 244 258 268 260 248 351 28 321 321 21 51 350 347 343 341 27 51 2 339 354 12 23 48 62 88 54 27 37 38 29 33 29 12 15 92 37 26 78 80 107 129 124 160 339 36 51 41 28 20 17 47 79 92 115 109 92 65 299 275 121 120 101 99 96 86 83 76 72 70 67 66 67 66 67 69 64
190 296 300 187 211 218 220 246 241 231 259 261 236 26 285 253 219 97 24 304 302 61 92 2 326 297 263 172 137 116 319 3 38 43 49 48 59 61 26 23 32 38 46 38 14 28 95 37 4 60 65 64 70 71 80 70 58 59 52 36 19 15 36 63 75 102 102 113 180 198 148 111 107 95 92 89 82 79 75 71 71 69 68 68 66 65 66 62
212 275 305 310 293 275 223 233 235 221 242 258 244 150 287 286 239 148 171 287 294 207 144 134 288 271 249 236 137 115 101 83 71 58 98 53 16 32 52 17 19 39 50 47 18 35 80 357 328 58 76 73 73 70 71 74 71 63 54 43 25 16 29 46 34 35 86 121 152 136 111 87 90 98 92 83 78 76 72 67 64 64 66 69 68 65 62 60
218 245 317 352 334 302 261 240 231 207 205 243 39 151 193 233 240 208 174 138 64 319 192 178 285 301 345 4 34 94 124 133 131 123 128 117 50 4 90 153 287 35 58 66 359 40 82 239 282 32 71 79 92 88 77 81 85 70 50 35 32 27 20 27 23 11 57 105 119 114 108 92 81 90 82 77 75 72 68 60 53 53 59 66 69 66 61 59
268 265 291 335 320 280 261 240 210 157 144 66 90 123 199 214 204 244 282 78 271 232 208 321 4 21 21 15 25 59 71 77 76 15 354 44 153 190 170 164 176 144 95 68 4 54 99 172 279 36 64 356 90 100 89 87 86 69 45 21 19 36 30 22 25 9 45 117 120 109 109 119 103 90 77 68 67 67 64 58 54 54 56 60 63 61 55 55
256 271 281 277 258 263 258 219 150 133 121 137 148 129 293 239 188 167 295 326 315 224 149 89 60 49 34 31 33 36 37 33 27 1 338 335 312 231 176 163 174 156 130 145 128 103 126 138 151 113 98 7 85 113 106 91 75 50 29 3 357 20 75 53 36 27 35 90 115 106 104 106 97 88 79 69 64 63 60 57 56 59 60 59 60 60 58 60